Volver al catálogo

NOAA 16 DEB

ActivoSSO
NORAD 41272·DEBRIS·🇺🇸 United States

Lanzado Sep 21, 2000 desde Vandenberg Space Force Base

Loading…

Próximos Pases (próximas 24 horas)

TLE

ActualizadoSource: Space-Track

Época: Sep 11, 2026, 03:51 UTC

1 41272U 00055FY  26254.16057781  .00002440  00000-0  10198-2 0  9991
2 41272  98.7384 322.5894 0026369 229.1609 130.7285 14.26870840552609

Sigue NOAA 16 DEB en tiempo real con AllMySat

Download on the App Store